�������l�o���
Date,Time,MP-1(��Sv/h),MP-2(��Sv/h),MP-3(��Sv/h),MP-4(��Sv/h),MP-5(��Sv/h),MP-6(��Sv/h),MP-7(��Sv/h),MP-8(��Sv/h),����,����(m/s),���J
2017/10/09,00:00,0.920,1.460,0.944,1.745,1.206,0.501,0.921,0.849,���k��,1.4,��
2017/10/09,00:10,0.920,1.457,0.943,1.745,1.207,0.501,0.921,0.850,��,1.2,��
2017/10/09,00:20,0.920,1.457,0.944,1.743,1.202,0.501,0.921,0.850,��,1.1,��
2017/10/09,00:30,0.919,1.458,0.944,1.744,1.205,0.500,0.921,0.849,���쐼,1.7,��
2017/10/09,00:40,0.919,1.457,0.946,1.744,1.204,0.502,0.920,0.850,���쐼,1.9,��
2017/10/09,00:50,0.919,1.458,0.943,1.748,1.207,0.502,0.924,0.850,�쐼,1.5,��
2017/10/09,01:00,0.920,1.459,0.944,1.746,1.206,0.501,0.922,0.850,�쐼,1.1,��
2017/10/09,01:10,0.921,1.459,0.944,1.746,1.205,0.502,0.921,0.850,-,CALM,��
2017/10/09,01:20,0.920,1.458,0.945,1.748,1.204,0.501,0.923,0.851,-,CALM,��
2017/10/09,01:30,0.918,1.456,0.943,1.745,1.206,0.500,0.921,0.850,-,CALM,��
2017/10/09,01:40,0.919,1.458,0.943,1.746,1.206,0.500,0.923,0.850,-,CALM,��
2017/10/09,01:50,0.920,1.459,0.945,1.743,1.207,0.501,0.920,0.849,-,CALM,��
2017/10/09,02:00,0.918,1.455,0.944,1.749,1.205,0.501,0.920,0.850,-,CALM,��
2017/10/09,02:10,0.920,1.457,0.943,1.747,1.206,0.501,0.920,0.850,��쐼,1.4,��
2017/10/09,02:20,0.918,1.457,0.943,1.746,1.203,0.500,0.922,0.851,�쐼,2.0,��
2017/10/09,02:30,0.918,1.457,0.943,1.743,1.204,0.501,0.921,0.849,��쐼,1.7,��
2017/10/09,02:40,0.917,1.457,0.946,1.746,1.203,0.500,0.922,0.850,�쐼,1.5,��
2017/10/09,02:50,0.918,1.457,0.945,1.745,1.204,0.501,0.922,0.851,�쐼,1.7,��
2017/10/09,03:00,0.920,1.456,0.945,1.743,1.202,0.500,0.921,0.850,��쐼,1.7,��
2017/10/09,03:10,0.919,1.456,0.942,1.748,1.206,0.501,0.922,0.850,��쐼,1.7,��
2017/10/09,03:20,0.918,1.456,0.942,1.742,1.208,0.500,0.923,0.850,��쐼,2.0,��
2017/10/09,03:30,0.917,1.457,0.943,1.745,1.204,0.501,0.923,0.850,��쐼,1.5,��
2017/10/09,03:40,0.918,1.455,0.942,1.747,1.205,0.502,0.921,0.850,��쓌,0.9,��
2017/10/09,03:50,0.918,1.456,0.943,1.742,1.204,0.501,0.920,0.851,��,1.4,��
2017/10/09,04:00,0.918,1.456,0.943,1.748,1.205,0.503,0.922,0.851,��쐼,1.4,��
2017/10/09,04:10,0.918,1.454,0.942,1.744,1.205,0.500,0.921,0.850,�쐼,1.2,��
2017/10/09,04:20,0.917,1.454,0.941,1.742,1.204,0.501,0.921,0.850,�쐼,1.4,��
2017/10/09,04:30,0.919,1.456,0.944,1.746,1.205,0.500,0.921,0.851,�쐼,1.2,��
2017/10/09,04:40,0.918,1.456,0.942,1.746,1.207,0.500,0.922,0.850,��쐼,1.5,��
2017/10/09,04:50,0.919,1.455,0.944,1.745,1.203,0.500,0.921,0.849,��쐼,1.1,��
2017/10/09,05:00,0.919,1.452,0.942,1.746,1.203,0.500,0.922,0.849,��,0.6,��
2017/10/09,05:10,0.918,1.457,0.943,1.744,1.204,0.500,0.921,0.848,���쐼,1.1,��
2017/10/09,05:20,0.917,1.456,0.943,1.744,1.200,0.500,0.920,0.849,�쐼,1.4,��
2017/10/09,05:30,0.918,1.458,0.943,1.742,1.203,0.501,0.918,0.850,�쐼,1.4,��
2017/10/09,05:40,0.915,1.455,0.941,1.742,1.203,0.501,0.920,0.851,�쐼,1.5,��
2017/10/09,05:50,0.918,1.456,0.943,1.744,1.204,0.500,0.920,0.851,�쐼,1.2,��
2017/10/09,06:00,0.916,1.455,0.943,1.744,1.203,0.501,0.921,0.851,�쐼,1.5,��
2017/10/09,06:10,0.918,1.452,0.942,1.745,1.200,0.501,0.920,0.849,���쐼,1.9,��
2017/10/09,06:20,0.917,1.456,0.942,1.745,1.204,0.500,0.921,0.848,�쐼,2.2,��
2017/10/09,06:30,0.919,1.457,0.943,1.746,1.202,0.502,0.920,0.852,�쐼,2.0,��
2017/10/09,06:40,0.918,1.457,0.943,1.743,1.203,0.501,0.920,0.850,�쐼,2.0,��
2017/10/09,06:50,0.918,1.455,0.943,1.745,1.203,0.500,0.921,0.852,��쓌,2.3,��
2017/10/09,07:00,0.918,1.458,0.942,1.744,1.203,0.500,0.922,0.851,��쓌,2.6,��
2017/10/09,07:10,0.919,1.458,0.943,1.744,1.205,0.502,0.923,0.852,��쓌,2.5,��
2017/10/09,07:20,0.920,1.455,0.945,1.744,1.205,0.502,0.925,0.852,��쓌,1.7,��
2017/10/09,07:30,0.918,1.460,0.944,1.749,1.205,0.503,0.924,0.851,��쓌,1.5,��
2017/10/09,07:40,0.920,1.457,0.944,1.746,1.203,0.501,0.923,0.851,��,1.7,��
2017/10/09,07:50,0.919,1.459,0.945,1.747,1.203,0.501,0.923,0.852,��쓌,2.0,��
2017/10/09,08:00,0.922,1.460,0.946,1.749,1.203,0.502,0.923,0.854,��쓌,1.7,��
2017/10/09,08:10,0.923,1.461,0.945,1.749,1.208,0.501,0.921,0.852,��쓌,1.2,��
2017/10/09,08:20,0.920,1.461,0.946,1.748,1.207,0.501,0.917,0.853,���쓌,0.9,��
2017/10/09,08:30,0.924,1.459,0.946,1.747,1.206,0.502,0.916,0.854,��,1.4,��
2017/10/09,08:40,0.922,1.462,0.946,1.749,1.209,0.501,0.917,0.854,��,1.4,��
2017/10/09,08:50,0.920,1.461,0.945,1.746,1.209,0.502,0.917,0.853,��,0.9,��
2017/10/09,09:00,0.921,1.458,0.947,1.751,1.207,0.500,0.917,0.855,��,1.2,��
2017/10/09,09:10,0.923,1.457,0.947,1.752,1.209,0.502,0.918,0.853,���쓌,1.2,��
2017/10/09,09:20,0.924,1.460,0.946,1.750,1.210,0.501,0.918,0.855,��,1.7,��
2017/10/09,09:30,0.923,1.461,0.948,1.750,1.209,0.502,0.918,0.854,��,1.5,��
2017/10/09,09:40,0.923,1.463,0.947,1.753,1.210,0.503,0.918,0.851,���쓌,2.0,��
2017/10/09,09:50,0.925,1.464,0.945,1.754,1.207,0.501,0.920,0.851,���쓌,2.8,��
2017/10/09,10:00,0.922,1.465,0.945,1.752,1.209,0.499,0.923,0.849,��,2.2,��
2017/10/09,10:10,0.926,1.463,0.948,1.751,1.209,0.500,0.925,0.851,���쓌,2.6,��
2017/10/09,10:20,0.925,1.465,0.947,1.754,1.210,0.501,0.922,0.851,���쓌,2.0,��
2017/10/09,10:30,0.924,1.464,0.948,1.755,1.213,0.501,0.924,0.852,�쓌,2.3,��
2017/10/09,10:40,0.925,1.465,0.947,1.754,1.211,0.500,0.925,0.850,�쓌,2.8,��
2017/10/09,10:50,0.927,1.464,0.949,1.756,1.213,0.501,0.924,0.851,�쓌,2.6,��
2017/10/09,11:00,0.924,1.464,0.947,1.756,1.212,0.503,0.924,0.852,�쓌,2.5,��
2017/10/09,11:10,0.926,1.466,0.948,1.754,1.213,0.501,0.925,0.851,�쓌,4.4,��
2017/10/09,11:20,0.926,1.461,0.950,1.754,1.212,0.502,0.926,0.852,�쓌,3.2,��
2017/10/09,11:30,0.923,1.467,0.946,1.755,1.212,0.502,0.925,0.853,��쓌,3.2,��
2017/10/09,11:40,0.929,1.470,0.946,1.756,1.212,0.503,0.924,0.853,��쓌,4.6,��
2017/10/09,11:50,0.928,1.470,0.950,1.755,1.213,0.502,0.927,0.850,�쓌,4.4,��
2017/10/09,12:00,0.928,1.467,0.949,1.755,1.215,0.504,0.926,0.850,�쓌,5.2,��
2017/10/09,12:10,0.928,1.471,0.951,1.758,1.213,0.502,0.926,0.850,��쓌,6.2,��
2017/10/09,12:20,0.928,1.471,0.953,1.754,1.215,0.501,0.926,0.851,��쓌,4.9,��
2017/10/09,12:30,0.930,1.474,0.950,1.758,1.219,0.501,0.926,0.852,��쓌,6.3,��
2017/10/09,12:40,0.927,1.474,0.952,1.759,1.215,0.502,0.921,0.851,��쓌,6.0,��
2017/10/09,12:50,0.928,1.472,0.951,1.757,1.218,0.501,0.923,0.853,��쓌,6.0,��
2017/10/09,13:00,0.930,1.473,0.949,1.756,1.218,0.502,0.922,0.853,��쓌,6.9,��
2017/10/09,13:10,0.929,1.476,0.952,1.755,1.217,0.502,0.922,0.853,��쓌,6.3,��
2017/10/09,13:20,0.929,1.473,0.953,1.757,1.220,0.503,0.926,0.852,��쓌,6.9,��
2017/10/09,13:30,0.928,1.473,0.950,1.759,1.219,0.502,0.924,0.852,��쓌,7.9,��
2017/10/09,13:40,0.928,1.476,0.949,1.756,1.222,0.502,0.922,0.852,��쓌,7.6,��
2017/10/09,13:50,0.928,1.473,0.951,1.759,1.217,0.503,0.924,0.851,��쓌,7.8,��
2017/10/09,14:00,0.930,1.476,0.952,1.757,1.218,0.504,0.923,0.853,��쓌,8.5,��
2017/10/09,14:10,0.929,1.476,0.953,1.756,1.218,0.505,0.925,0.852,��쓌,9.4,��
2017/10/09,14:20,0.930,1.475,0.952,1.756,1.217,0.507,0.926,0.853,��쓌,8.7,��
2017/10/09,14:30,0.930,1.474,0.950,1.758,1.216,0.507,0.926,0.853,��쓌,9.0,��
2017/10/09,14:40,0.930,1.477,0.950,1.757,1.218,0.506,0.927,0.853,��쓌,9.1,��
2017/10/09,14:50,0.929,1.474,0.952,1.758,1.220,0.507,0.925,0.852,��쓌,6.4,��
2017/10/09,15:00,0.931,1.476,0.951,1.758,1.219,0.507,0.925,0.852,��쓌,5.7,��
2017/10/09,15:10,0.930,1.475,0.952,1.757,1.220,0.506,0.925,0.852,��,5.8,��
2017/10/09,15:20,0.930,1.478,0.951,1.759,1.219,0.508,0.927,0.853,��쓌,7.1,��
2017/10/09,15:30,0.929,1.478,0.952,1.759,1.218,0.509,0.926,0.853,��쓌,7.7,��
2017/10/09,15:40,0.932,1.476,0.953,1.756,1.219,0.510,0.926,0.852,��쓌,5.8,��
2017/10/09,15:50,0.930,1.479,0.951,1.758,1.224,0.508,0.926,0.853,��,4.8,��
2017/10/09,16:00,0.928,1.476,0.951,1.757,1.218,0.508,0.926,0.854,��쓌,6.3,��
2017/10/09,16:10,0.929,1.477,0.951,1.758,1.221,0.508,0.927,0.853,��쓌,6.2,��
2017/10/09,16:20,0.930,1.477,0.953,1.759,1.221,0.508,0.926,0.852,��,5.8,��
2017/10/09,16:30,0.929,1.477,0.950,1.757,1.220,0.508,0.927,0.853,��,4.9,��
2017/10/09,16:40,0.929,1.479,0.953,1.756,1.219,0.509,0.926,0.854,��,6.1,��
2017/10/09,16:50,0.930,1.479,0.951,1.757,1.220,0.509,0.926,0.855,��,5.2,��
2017/10/09,17:00,0.929,1.479,0.950,1.760,1.220,0.509,0.928,0.855,��,5.1,��
2017/10/09,17:10,0.930,1.477,0.953,1.760,1.220,0.507,0.928,0.856,��,5.3,��
2017/10/09,17:20,0.930,1.482,0.953,1.759,1.218,0.509,0.928,0.856,��,5.3,��
2017/10/09,17:30,0.928,1.482,0.955,1.764,1.224,0.509,0.927,0.856,��,5.1,��
2017/10/09,17:40,0.930,1.482,0.955,1.760,1.223,0.510,0.928,0.857,��,5.0,��
2017/10/09,17:50,0.931,1.481,0.955,1.759,1.219,0.510,0.930,0.856,��,4.1,��
2017/10/09,18:00,0.932,1.477,0.956,1.760,1.222,0.508,0.929,0.854,��,3.5,��
2017/10/09,18:10,0.932,1.479,0.955,1.757,1.222,0.509,0.929,0.854,��쐼,1.9,��
2017/10/09,18:20,0.931,1.480,0.957,1.759,1.223,0.510,0.929,0.855,�쐼,0.9,��
2017/10/09,18:30,0.933,1.480,0.956,1.758,1.222,0.509,0.928,0.855,���쐼,1.5,��
2017/10/09,18:40,0.932,1.481,0.955,1.756,1.223,0.512,0.928,0.856,���k��,0.9,��
2017/10/09,18:50,0.934,1.480,0.955,1.758,1.221,0.508,0.929,0.854,��,1.1,��
2017/10/09,19:00,0.933,1.480,0.956,1.759,1.224,0.509,0.929,0.856,�쐼,1.9,��
2017/10/09,19:10,0.936,1.480,0.956,1.758,1.221,0.508,0.928,0.854,���쐼,2.3,��
2017/10/09,19:20,0.932,1.479,0.954,1.756,1.223,0.508,0.930,0.855,�쐼,1.2,��
2017/10/09,19:30,0.934,1.477,0.955,1.759,1.223,0.510,0.930,0.854,��,1.2,��
2017/10/09,19:40,0.932,1.478,0.954,1.756,1.223,0.507,0.929,0.855,��쐼,1.7,��
2017/10/09,19:50,0.935,1.477,0.955,1.758,1.223,0.508,0.928,0.857,���쐼,2.0,��
2017/10/09,20:00,0.934,1.478,0.957,1.758,1.222,0.509,0.929,0.855,�쐼,2.3,��
2017/10/09,20:10,0.932,1.479,0.954,1.759,1.223,0.508,0.930,0.857,�쐼,2.6,��
2017/10/09,20:20,0.931,1.479,0.954,1.760,1.223,0.508,0.930,0.854,�쐼,3.0,��
2017/10/09,20:30,0.934,1.478,0.955,1.757,1.222,0.510,0.928,0.854,���쐼,3.4,��
2017/10/09,20:40,0.931,1.478,0.955,1.759,1.222,0.507,0.931,0.855,�쐼,2.6,��
2017/10/09,20:50,0.934,1.477,0.957,1.759,1.224,0.507,0.928,0.856,�쐼,2.6,��
2017/10/09,21:00,0.932,1.478,0.955,1.759,1.222,0.507,0.931,0.854,�쐼,3.0,��
2017/10/09,21:10,0.933,1.478,0.956,1.757,1.222,0.510,0.928,0.856,���쐼,2.6,��
2017/10/09,21:20,0.934,1.477,0.955,1.760,1.222,0.508,0.927,0.855,�쐼,2.0,��
2017/10/09,21:30,0.932,1.478,0.956,1.761,1.223,0.508,0.928,0.855,��쐼,1.7,��
2017/10/09,21:40,0.934,1.479,0.958,1.758,1.225,0.508,0.930,0.857,���쐼,1.7,��
2017/10/09,21:50,0.935,1.477,0.956,1.760,1.223,0.508,0.929,0.855,��,1.9,��
2017/10/09,22:00,0.930,1.478,0.956,1.761,1.224,0.508,0.927,0.856,�k��,0.6,��
2017/10/09,22:10,0.934,1.477,0.955,1.761,1.223,0.508,0.928,0.856,�k�k��,1.7,��
2017/10/09,22:20,0.935,1.479,0.956,1.759,1.225,0.509,0.928,0.859,�k��,3.9,��
2017/10/09,22:30,0.933,1.476,0.955,1.762,1.222,0.508,0.929,0.856,�k��,4.2,��
2017/10/09,22:40,0.934,1.478,0.956,1.758,1.221,0.508,0.929,0.857,���k��,3.2,��
2017/10/09,22:50,0.933,1.479,0.955,1.759,1.223,0.507,0.928,0.855,�k��,3.5,��
2017/10/09,23:00,0.932,1.479,0.957,1.759,1.221,0.507,0.929,0.856,�k��,2.8,��
2017/10/09,23:10,0.933,1.479,0.958,1.759,1.223,0.507,0.928,0.855,�k��,1.9,��
2017/10/09,23:20,0.934,1.475,0.956,1.763,1.223,0.507,0.927,0.856,�k,2.0,��
2017/10/09,23:30,0.932,1.478,0.957,1.757,1.223,0.507,0.930,0.856,�k�k��,1.2,��
2017/10/09,23:40,0.933,1.480,0.958,1.759,1.221,0.506,0.927,0.857,�k��,1.7,��
2017/10/09,23:50,0.934,1.476,0.955,1.761,1.224,0.508,0.928,0.857,�k��,1.2,��
